User: anonymous
Location: Unspecified
(0.0000°N, 0.0000°E)
Time: 21:20:21
(UTC+00:00)
Language:

NOAA 17 - Orbit

View from above orbital plane
View from above orbital plane
View from above satellite
View from above satellite

Ground track
Ground track

The orbit data is extracted from the following two-line orbital elements,

1 27453U 02032A   14250.49968061  .00000140  00000-0  59873-4 0  7026
2 27453 098.3212 245.8952 0011412 295.3858 064.6709 14.24769794634404
Epoch (UTC): 07 September 2014 11:59:32
Eccentricity: 0.0011412
inclination: 98.3212°
perigee height: 801 km
apogee height: 817 km
right ascension of ascending node: 245.8952°
argument of perigee: 295.3858°
revolutions per day: 14.24769794
mean anomaly at epoch: 64.6709°
orbit number at epoch: 63440

The dashed part of the orbit path shows where the satellite is in the earth's shadow,  

DLR